EW8215 Weather Reports


Display with metric or nautical units.
time (UTC)temp
F
wind
direction
speed
MPH
gust
MPH
rain 1hr
in
rain 24hr
in
rain mn
in
humidity
%
barometer
mb
20210917170505 89 311 4.0 10.0 0.00 0.00 0.00 59 1016.3
20210917170004 89 348 1.0 8.0 0.00 0.00 0.00 58 1016.3
20210917165504 88 239 4.0 8.0 0.00 0.00 0.00 57 1016.3
20210917165004 88 167 3.0 8.0 0.00 0.00 0.00 59 1016.3
20210917164505 88 183 2.0 10.0 0.00 0.00 0.00 59 1016.3
20210917164007 87 234 3.0 5.0 0.00 0.00 0.00 59 1016.3
20210917163508 87 318 1.0 5.0 0.00 0.00 0.00 62 1016.3
20210917163004 87 165 2.0 5.0 0.00 0.00 0.00 63 1016.3
20210917162504 87 185 2.0 8.0 0.00 0.00 0.00 64 1016.6
20210917162005 87 317 2.0 8.0 0.00 0.00 0.00 64 1016.5
20210917161503 87 351 1.0 5.0 0.00 0.00 0.00 63 1016.6
20210917161007 86 264 2.0 5.0 0.00 0.00 0.00 63 1016.4
20210917160504 86 171 1.0 5.0 0.00 0.00 0.00 66 1016.3
20210917160004 85 236 1.0 8.0 0.00 0.00 0.00 66 1016.4
20210917155506 85 115 2.0 8.0 0.00 0.00 0.00 67 1016.6
20210917155007 84 220 4.0 8.0 0.00 0.00 0.00 66 1016.6
20210917154507 84 171 1.0 5.0 0.00 0.00 0.00 68 1016.6
20210917154005 84 287 3.0 5.0 0.00 0.00 0.00 70 1016.6
20210917153504 84 270 3.0 5.0 0.00 0.00 0.00 72 1016.6
20210917153007 84 139 0.0 5.0 0.00 0.00 0.00 71 1016.6
20210917152504 84 147 1.0 5.0 0.00 0.00 0.00 73 1016.3
20210917152004 84 280 2.0 5.0 0.00 0.00 0.00 73 1016.3
20210917151504 84 49 1.0 5.0 0.00 0.00 0.00 71 1016.6
20210917151004 83 224 2.0 5.0 0.00 0.00 0.00 70 1016.4
20210917150503 83 147 1.0 2.0 0.00 0.00 0.00 72 1016.3
20210917150008 82 201 2.0 5.0 0.00 0.00 0.00 74 1016.4
20210917145504 82 135 2.0 5.0 0.00 0.00 0.00 74 1016.6
20210917145004 82 192 1.0 5.0 0.00 0.00 0.00 73 1016.3
20210917144508 81 171 0.0 5.0 0.00 0.00 0.00 75 1016.3
20210917144004 81 145 3.0 5.0 0.00 0.00 0.00 77 1016.3
20210917143505 81 166 0.0 2.0 0.00 0.00 0.00 76 1016.3
20210917143004 80 186 0.0 5.0 0.00 0.00 0.00 78 1016.3
20210917142504 80 150 2.0 5.0 0.00 0.00 0.00 78 1016.3
20210917142004 79 192 1.0 2.0 0.00 0.00 0.00 78 1016.3
20210917141504 78 183 1.0 2.0 0.00 0.00 0.00 77 1016.3
20210917141004 77 137 1.0 2.0 0.00 0.00 0.00 79 1016.3
20210917140504 76 144 0.0 2.0 0.00 0.00 0.00 82 1016.3
20210917140004 75 175 0.0 2.0 0.00 0.00 0.00 84 1016.3
20210917135508 74 128 0.0 0.0 0.00 0.00 0.00 86 1016.3
20210917135004 73 127 0.0 0.0 0.00 0.00 0.00 90 1016.3
20210917134504 72 140 0.0 0.0 0.00 0.00 0.00 94 1015.9
20210917134004 72 121 0.0 0.0 0.00 0.00 0.00 98 1015.9
20210917133504 71 120 0.0 0.0 0.00 0.00 0.00 99 1015.9
20210917133008 71 123 0.0 0.0 0.00 0.00 0.00 99 1015.9
20210917132504 70 126 0.0 0.0 0.00 0.00 0.00 99 1015.7
20210917132004 69 136 0.0 0.0 0.00 0.00 0.00 99 1015.8
20210917131504 69 125 0.0 0.0 0.00 0.00 0.00 99 1015.6
20210917131007 68 126 0.0 0.0 0.00 0.00 0.00 99 1015.6
20210917130504 67 140 0.0 0.0 0.00 0.00 0.00 99 1015.6
20210917130004 67 144 0.0 0.0 0.00 0.00 0.00 99 1015.6
20210917125504 67 124 0.0 0.0 0.00 0.00 0.00 99 1015.4
20210917125004 67 136 0.0 0.0 0.00 0.00 0.00 99 1015.2
20210917124504 67 131 0.0 0.0 0.00 0.00 0.00 99 1015.2
20210917124004 67 121 0.0 0.0 0.00 0.00 0.00 99 1015.2
20210917123503 67 117 0.0 0.0 0.00 0.00 0.00 99 1015.2
20210917123005 66 126 0.0 0.0 0.00 0.00 0.00 99 1015.2
20210917122504 66 119 0.0 0.0 0.00 0.00 0.00 99 1014.9
20210917122004 66 119 0.0 0.0 0.00 0.00 0.00 99 1014.9
20210917121504 66 119 0.0 0.0 0.00 0.00 0.00 99 1014.9
20210917121005 66 116 0.0 0.0 0.00 0.00 0.00 99 1014.9
20210917120508 66 119 0.0 0.0 0.00 0.00 0.00 99 1014.7
20210917120004 66 130 0.0 0.0 0.00 0.00 0.00 99 1014.9
20210917115504 66 128 0.0 0.0 0.00 0.00 0.00 99 1014.6
20210917115007 66 140 0.0 0.0 0.00 0.00 0.00 99 1014.6
20210917114504 66 126 0.0 0.0 0.00 0.00 0.00 99 1014.6
20210917114004 66 117 0.0 0.0 0.00 0.00 0.00 99 1014.6
20210917113503 66 119 0.0 0.0 0.00 0.00 0.00 99 1014.6
20210917113005 66 119 0.0 0.0 0.00 0.00 0.00 99 1014.6
20210917112504 66 116 0.0 0.0 0.00 0.00 0.00 99 1014.6
20210917112007 66 112 0.0 0.0 0.00 0.00 0.00 99 1014.5
20210917111504 66 123 0.0 0.0 0.00 0.00 0.00 99 1014.2
20210917111004 66 126 0.0 0.0 0.00 0.00 0.00 99 1014.2
20210917110508 67 129 0.0 0.0 0.00 0.00 0.00 99 1014.2
20210917110008 67 127 0.0 0.0 0.00 0.00 0.00 99 1014.2
20210917105504 67 135 0.0 0.0 0.00 0.00 0.00 99 1014.2
20210917105004 67 138 0.0 0.0 0.00 0.00 0.00 99 1014.2
20210917104508 67 118 0.0 0.0 0.00 0.00 0.00 99 1014.2
20210917104007 67 123 0.0 0.0 0.00 0.00 0.00 99 1014.2
20210917103506 67 108 0.0 0.0 0.00 0.00 0.00 99 1013.9
20210917103007 67 117 0.0 0.0 0.00 0.00 0.00 99 1013.9
20210917102504 67 112 0.0 0.0 0.00 0.00 0.00 99 1014.0
20210917102004 67 117 0.0 0.0 0.00 0.00 0.00 99 1013.9
20210917101505 67 118 0.0 0.0 0.00 0.00 0.00 99 1013.9
20210917101004 67 115 0.0 0.0 0.00 0.00 0.00 99 1014.2
20210917100504 67 118 0.0 0.0 0.00 0.00 0.00 99 1013.9
20210917100004 67 131 0.0 0.0 0.00 0.00 0.00 99 1013.9
20210917095507 67 121 0.0 0.0 0.00 0.00 0.00 99 1013.9
20210917095004 67 120 0.0 0.0 0.00 0.00 0.00 99 1013.7
20210917094506 67 124 0.0 0.0 0.00 0.00 0.00 99 1013.7
20210917094006 67 130 0.0 0.0 0.00 0.00 0.00 99 1013.5
20210917093504 67 119 0.0 0.0 0.00 0.00 0.00 99 1013.5
20210917093004 67 69 0.0 0.0 0.00 0.00 0.00 99 1013.5
20210917092504 68 111 0.0 0.0 0.00 0.00 0.00 99 1013.5
20210917092004 68 103 0.0 0.0 0.00 0.00 0.00 99 1013.5
20210917091505 68 93 0.0 0.0 0.00 0.00 0.00 99 1013.6
20210917091008 68 82 0.0 0.0 0.00 0.00 0.00 99 1013.7
20210917090504 68 112 0.0 0.0 0.00 0.00 0.00 99 1013.5
20210917090007 68 130 0.0 0.0 0.00 0.00 0.00 99 1013.5
20210917085504 68 136 0.0 0.0 0.00 0.00 0.00 99 1013.5
20210917085004 68 137 0.0 0.0 0.00 0.00 0.00 99 1013.5
20210917084504 68 123 0.0 0.0 0.00 0.00 0.00 99 1013.5
20210917084008 68 117 0.0 0.0 0.00 0.00 0.00 98 1013.5
20210917083508 68 118 0.0 0.0 0.00 0.00 0.00 98 1013.5
20210917083004 68 117 0.0 0.0 0.00 0.00 0.00 98 1013.5
20210917082507 68 117 0.0 0.0 0.00 0.00 0.00 98 1013.5
20210917082004 68 118 0.0 0.0 0.00 0.00 0.00 98 1013.5
20210917081504 68 120 0.0 0.0 0.00 0.00 0.00 98 1013.5
20210917081008 69 120 0.0 0.0 0.00 0.00 0.00 98 1013.5
20210917080504 69 119 0.0 0.0 0.00 0.00 0.00 98 1013.5
20210917080007 69 119 0.0 0.0 0.00 0.00 0.00 98 1013.5
20210917075504 69 117 0.0 0.0 0.00 0.00 0.00 98 1013.5
20210917075005 69 84 0.0 0.0 0.00 0.00 0.00 98 1013.5
20210917074506 69 40 0.0 0.0 0.00 0.00 0.00 97 1013.5
20210917074004 69 111 0.0 0.0 0.00 0.00 0.00 97 1013.5
20210917073507 69 121 0.0 0.0 0.00 0.00 0.00 97 1013.5
20210917073004 69 137 0.0 0.0 0.00 0.00 0.00 97 1013.5
20210917072509 69 124 0.0 0.0 0.00 0.00 0.00 96 1013.5
20210917072006 69 124 0.0 0.0 0.00 0.00 0.00 96 1013.5
20210917071504 69 125 0.0 0.0 0.00 0.00 0.00 96 1013.5
20210917071004 70 131 0.0 0.0 0.00 0.00 0.00 96 1013.5
20210917070504 70 118 0.0 0.0 0.00 0.00 0.00 96 1013.5
20210917070004 70 105 0.0 0.0 0.00 0.00 0.00 96 1013.5
20210917065504 70 80 0.0 0.0 0.00 0.00 0.00 95 1013.5
20210917065004 70 120 0.0 0.0 0.00 0.00 0.00 95 1013.5
20210917064505 70 118 0.0 0.0 0.00 0.00 0.00 95 1013.5
20210917064004 70 119 0.0 0.0 0.00 0.00 0.00 95 1013.5
20210917063504 70 119 0.0 0.0 0.00 0.00 0.00 95 1013.7
20210917063004 70 125 0.0 0.0 0.00 0.00 0.00 95 1013.9
20210917062504 71 120 0.0 0.0 0.00 0.00 0.00 95 1013.7
20210917062004 71 120 0.0 0.0 0.00 0.00 0.00 94 1013.9
20210917061504 71 117 0.0 0.0 0.00 0.00 0.00 94 1013.9
20210917061004 71 125 0.0 0.0 0.00 0.00 0.00 94 1013.7
20210917060507 71 124 0.0 0.0 0.00 0.00 0.00 93 1013.9
20210917060004 72 122 0.0 0.0 0.00 0.00 0.00 93 1013.9
20210917055508 72 118 0.0 0.0 0.00 0.00 0.00 92 1013.9
20210917055004 72 114 0.0 0.0 0.00 0.00 0.00 92 1013.9
20210917054504 72 111 0.0 0.0 0.00 0.00 0.00 92 1013.8
20210917054004 72 114 0.0 0.0 0.00 0.00 0.00 92 1013.9
20210917053505 72 118 0.0 0.0 0.00 0.00 0.00 92 1013.9
20210917053004 72 116 0.0 0.0 0.00 0.00 0.00 91 1013.9
20210917052504 72 121 0.0 0.0 0.00 0.00 0.00 91 1013.9
20210917052005 73 118 0.0 0.0 0.00 0.00 0.00 91 1013.9
20210917051504 73 122 0.0 0.0 0.00 0.00 0.00 91 1013.9
20210917051007 73 116 0.0 0.0 0.00 0.00 0.00 91 1013.9
20210917050508 73 123 0.0 0.0 0.00 0.00 0.00 90 1013.9
20210917050008 73 120 0.0 0.0 0.00 0.00 0.00 90 1013.9
20210917045508 73 121 0.0 0.0 0.00 0.00 0.00 89 1013.9
20210917045007 73 120 0.0 2.0 0.00 0.00 0.00 89 1013.9
20210917044507 73 114 0.0 2.0 0.00 0.00 0.00 89 1013.9
20210917044004 74 124 1.0 2.0 0.00 0.00 0.00 88 1013.9
20210917043504 74 114 1.0 2.0 0.00 0.00 0.00 88 1013.9
20210917043008 74 127 1.0 2.0 0.00 0.00 0.00 87 1013.9
20210917042504 74 114 1.0 2.0 0.00 0.00 0.00 87 1013.9
20210917042004 74 115 1.0 2.0 0.00 0.00 0.00 87 1013.9
20210917041504 74 126 1.0 2.0 0.00 0.00 0.00 86 1013.9
20210917041006 74 116 2.0 5.0 0.00 0.00 0.00 86 1013.7
20210917040504 75 118 2.0 5.0 0.00 0.00 0.00 86 1013.7
20210917040003 75 114 1.0 2.0 0.00 0.00 0.00 85 1013.5
20210917035507 75 116 1.0 5.0 0.00 0.00 0.00 85 1013.5
20210917035004 75 126 2.0 5.0 0.00 0.00 0.00 84 1013.5
20210917034508 75 117 2.0 5.0 0.00 0.00 0.00 85 1013.5
20210917034009 76 128 1.0 2.0 0.00 0.00 0.00 84 1013.5
20210917033504 76 123 1.0 2.0 0.00 0.00 0.00 84 1013.5
20210917033004 76 131 0.0 5.0 0.00 0.00 0.00 83 1013.5
20210917032507 77 121 3.0 8.0 0.00 0.00 0.00 82 1013.5
20210917032008 77 130 2.0 8.0 0.00 0.00 0.00 82 1013.5
20210917031506 77 124 3.0 5.0 0.00 0.00 0.00 81 1013.5
20210917031004 77 105 2.0 5.0 0.00 0.00 0.00 81 1013.3
20210917030505 77 134 3.0 8.0 0.00 0.00 0.00 80 1013.5
20210917030004 77 123 4.0 8.0 0.00 0.00 0.00 80 1013.2
20210917025504 77 120 5.0 13.0 0.00 0.00 0.00 79 1013.2
20210917025005 77 123 3.0 5.0 0.00 0.00 0.00 79 1013.2
20210917024504 77 131 3.0 5.0 0.00 0.00 0.00 79 1013.2
20210917024008 78 126 3.0 5.0 0.00 0.00 0.00 78 1012.9
20210917023507 78 134 3.0 8.0 0.00 0.00 0.00 78 1012.9
20210917023005 78 117 3.0 5.0 0.00 0.00 0.00 78 1012.9
20210917022503 78 114 3.0 8.0 0.00 0.00 0.00 77 1012.9
20210917022004 78 118 3.0 8.0 0.00 0.00 0.00 77 1012.9
20210917021504 79 116 2.0 5.0 0.00 0.00 0.00 76 1012.7
20210917021006 79 111 3.0 5.0 0.00 0.00 0.00 76 1012.5
20210917020503 79 119 3.0 5.0 0.00 0.00 0.00 76 1012.5
20210917020008 79 114 2.0 5.0 0.00 0.00 0.00 75 1012.5
20210917015504 79 116 2.0 2.0 0.00 0.00 0.00 75 1012.2
20210917015005 80 109 2.0 5.0 0.00 0.00 0.00 74 1012.2
20210917014507 80 117 2.0 5.0 0.00 0.00 0.00 74 1012.2
20210917014004 82 114 3.0 5.0 0.00 0.00 0.00 70 1011.5
20210917011010 82 112 3.0 5.0 0.00 0.00 0.00 70 1011.5
20210917010516 83 113 3.0 5.0 0.00 0.00 0.00 69 1011.5
20210917010004 83 113 5.0 10.0 0.00 0.00 0.00 68 1011.5
20210917005504 83 115 5.0 10.0 0.00 0.00 0.00 67 1011.5
20210917005004 83 112 5.0 13.0 0.00 0.00 0.00 67 1011.5
20210917004503 84 111 6.0 13.0 0.00 0.00 0.00 66 1011.5
20210917004004 84 100 6.0 10.0 0.00 0.00 0.00 65 1011.2
20210917003504 85 90 5.0 10.0 0.00 0.00 0.00 64 1011.2
20210917003005 85 107 2.0 8.0 0.00 0.00 0.00 63 1011.2
20210917002505 86 100 2.0 8.0 0.00 0.00 0.00 62 1010.9
20210917002004 86 98 5.0 8.0 0.00 0.00 0.00 61 1010.8
20210917001504 87 111 2.0 5.0 0.00 0.00 0.00 60 1010.8
20210917001005 88 110 5.0 8.0 0.00 0.00 0.00 59 1010.8
20210917000504 88 121 6.0 13.0 0.00 0.00 0.00 58 1010.8
20210917000008 89 108 2.0 10.0 0.00 0.00 0.00 57 1010.8
20210916235504 89 122 4.0 8.0 0.00 0.00 0.00 56 1010.8
20210916235008 89 108 4.0 8.0 0.00 0.00 0.00 54 1010.8
20210916234504 89 113 4.0 8.0 0.00 0.00 0.00 54 1010.8
20210916234004 88 95 3.0 8.0 0.00 0.00 0.00 53 1010.5
20210916233504 88 98 5.0 8.0 0.00 0.00 0.00 53 1010.5
20210916233004 88 109 5.0 10.0 0.00 0.00 0.00 53 1010.5
20210916232504 88 112 5.0 8.0 0.00 0.00 0.00 55 1010.5
20210916232004 89 102 1.0 5.0 0.00 0.00 0.00 56 1010.5
20210916231504 89 90 1.0 5.0 0.00 0.00 0.00 54 1010.5
20210916231004 91 92 2.0 5.0 0.00 0.00 0.00 53 1010.5
20210916230504 91 82 3.0 10.0 0.00 0.00 0.00 53 1010.5
20210916230004 91 88 3.0 10.0 0.00 0.00 0.00 52 1010.5
20210916225504 91 102 2.0 8.0 0.00 0.00 0.00 51 1010.5
20210916225004 91 86 5.0 8.0 0.00 0.00 0.00 48 1010.5
20210916224504 91 104 3.0 10.0 0.00 0.00 0.00 49 1010.3
20210916224004 91 114 3.0 10.0 0.00 0.00 0.00 49 1010.2
20210916223505 92 115 8.0 13.0 0.00 0.00 0.00 49 1010.5
20210916223004 92 92 0.0 0.0 0.00 0.00 0.00 50 1010.5
20210916222507 92 92 0.0 2.0 0.00 0.00 0.00 50 1010.5
20210916222004 92 97 1.0 5.0 0.00 0.00 0.00 48 1010.5
20210916221504 92 132 4.0 10.0 0.00 0.00 0.00 48 1010.5
20210916221004 92 31 3.0 10.0 0.00 0.00 0.00 47 1010.2
20210916220505 92 143 2.0 10.0 0.00 0.00 0.00 47 1010.2
20210916220004 92 104 0.0 5.0 0.00 0.00 0.00 48 1010.4
20210916215504 92 74 4.0 8.0 0.00 0.00 0.00 46 1010.2
20210916215004 92 70 3.0 8.0 0.00 0.00 0.00 46 1010.2
20210916214505 92 81 2.0 8.0 0.00 0.00 0.00 47 1010.3
20210916214004 92 142 5.0 10.0 0.00 0.00 0.00 48 1010.2
20210916213504 92 85 2.0 5.0 0.00 0.00 0.00 49 1010.5
20210916213008 92 105 1.0 8.0 0.00 0.00 0.00 49 1010.5
20210916212507 93 80 3.0 5.0 0.00 0.00 0.00 47 1010.5
20210916212004 93 122 5.0 10.0 0.00 0.00 0.00 46 1010.5
20210916211507 93 115 3.0 10.0 0.00 0.00 0.00 47 1010.5
20210916211004 92 116 4.0 10.0 0.00 0.00 0.00 48 1010.5
20210916210505 92 93 2.0 10.0 0.00 0.00 0.00 48 1010.8
20210916210007 92 63 3.0 10.0 0.00 0.00 0.00 47 1010.8
20210916205504 92 104 1.0 5.0 0.00 0.00 0.00 45 1010.8
20210916205004 92 82 1.0 10.0 0.00 0.00 0.00 47 1010.8
20210916204509 92 97 3.0 8.0 0.00 0.00 0.00 45 1010.8
20210916204005 92 118 3.0 8.0 0.00 0.00 0.00 48 1010.8
20210916203504 92 88 1.0 8.0 0.00 0.00 0.00 49 1010.8
20210916203006 92 79 3.0 15.0 0.00 0.00 0.00 46 1010.8
20210916202505 91 67 4.0 15.0 0.00 0.00 0.00 48 1011.2
20210916202005 91 73 3.0 8.0 0.00 0.00 0.00 49 1010.9
20210916201504 91 81 2.0 8.0 0.00 0.00 0.00 47 1011.1
20210916201009 91 83 2.0 5.0 0.00 0.00 0.00 49 1011.2
20210916200505 91 72 6.0 10.0 0.00 0.00 0.00 49 1011.5
20210916200005 91 77 4.0 10.0 0.00 0.00 0.00 51 1011.5
20210916195504 92 58 7.0 13.0 0.00 0.00 0.00 51 1011.5
20210916195004 92 114 3.0 10.0 0.00 0.00 0.00 49 1011.5
20210916194504 92 112 3.0 8.0 0.00 0.00 0.00 49 1011.5
20210916194004 91 52 3.0 5.0 0.00 0.00 0.00 50 1011.9
20210916193504 91 116 2.0 8.0 0.00 0.00 0.00 48 1011.9
20210916193005 91 16 3.0 13.0 0.00 0.00 0.00 48 1011.9
20210916192504 91 92 4.0 10.0 0.00 0.00 0.00 50 1011.9
20210916192008 91 109 3.0 13.0 0.00 0.00 0.00 51 1011.9
20210916191508 91 117 5.0 10.0 0.00 0.00 0.00 51 1011.9
20210916191004 91 100 1.0 10.0 0.00 0.00 0.00 52 1011.9
20210916190505 91 82 5.0 10.0 0.00 0.00 0.00 50 1012.2
20210916190004 91 131 2.0 10.0 0.00 0.00 0.00 51 1012.2
20210916185507 91 58 6.0 13.0 0.00 0.00 0.00 47 1012.2
20210916185004 91 107 2.0 13.0 0.00 0.00 0.00 50 1012.2
20210916184504 91 88 2.0 10.0 0.00 0.00 0.00 52 1012.2
20210916184006 91 350 4.0 10.0 0.00 0.00 0.00 51 1012.5
20210916183508 90 95 5.0 15.0 0.00 0.00 0.00 51 1012.5
20210916183004 90 84 2.0 5.0 0.00 0.00 0.00 50 1012.5
20210916182504 89 98 3.0 10.0 0.00 0.00 0.00 51 1012.5
20210916182004 89 103 3.0 10.0 0.00 0.00 0.00 52 1012.5
20210916181504 89 116 1.0 8.0 0.00 0.00 0.00 52 1012.5
20210916181004 89 60 6.0 13.0 0.00 0.00 0.00 53 1012.9
20210916180509 89 67 5.0 10.0 0.00 0.00 0.00 53 1012.5
20210916180005 89 77 7.0 13.0 0.00 0.00 0.00 53 1012.9
20210916175508 89 345 5.0 10.0 0.00 0.00 0.00 54 1012.9
20210916175004 88 97 1.0 8.0 0.00 0.00 0.00 54 1012.9
20210916174504 88 36 7.0 10.0 0.00 0.00 0.00 54 1012.9
20210916174004 88 92 2.0 13.0 0.00 0.00 0.00 53 1012.9
20210916173503 88 150 2.0 10.0 0.00 0.00 0.00 55 1013.2
20210916173004 88 85 2.0 8.0 0.00 0.00 0.00 53 1013.2
20210916172503 87 79 6.0 13.0 0.00 0.00 0.00 54 1013.2
20210916172007 87 60 5.0 13.0 0.00 0.00 0.00 55 1013.2
20210916171504 87 89 5.0 10.0 0.00 0.00 0.00 54 1013.5
20210916171008 86 60 3.0 10.0 0.00 0.00 0.00 55 1013.5